Simultaneous Nadir Overpasses (SNOs) Predictions

Prediction of SNOs near equator between AQUA and NPP Satellite Orbit:

Table of predicted SNOs near equator for the next 14.0 days since TLE Epoch: 6/15/2013
Index Date (AQUA) Time (AQUA) AQUA Lat,Lon Date (NPP) Time (NPP) NPP Lat,Lon Distance(km) Time Diff (sec)
1 06/17/2013 00:58:26 -3.53, 8.86 06/17/2013 00:49:11 -3.42, 8.29 63.59 555
2 06/17/2013 01:46:40 -1.11, 177.46 06/17/2013 01:38:41 -1.26, 176.64 93.45 479
3 06/19/2013 16:26:13 6.23, -43.49 06/19/2013 16:16:13 6.28, -43.90 46.38 600
4 06/19/2013 17:14:22 -1.81, 125.11 06/19/2013 17:05:35 -1.68, 124.46 73.55 527
5 06/22/2013 08:42:12 4.64, 72.75 06/22/2013 08:32:38 4.54, 72.27 53.85 574
6 06/22/2013 09:30:20 -0.15,-118.64 06/22/2013 09:22:01 0.01,-119.38 83.62 499
7 06/25/2013 00:16:07
